Terminal Aerodrome Forecast
Issued by NWS State College, PA

Home | Current Version | Previous Version | Text Only | Print | Product List | Glossary On
Versions: 1 2 3 4 5 6 7 8 9 10 11 12 13 14 15 16 17 18 19 20 21 22 23 24 25 26 27 28 29 30 31 32 33 34 35 36 37 38 39 40 41 42 43 44 45 46 47 48 49 50
000
FTUS41 KCTP 211617 AAE
TAFIPT
TAF AMD
KIPT 211617Z 2116/2212 12009KT P6SM SCT018
     FM211700 14007KT P6SM VCSH BKN045 BKN080
     FM211900 20007KT P6SM VCSH BKN040
     FM220000 26009KT P6SM BKN050
     FM220900 27008KT P6SM OVC010=

USA.gov is the U.S. government's official web portal to all federal, state and local government web resources and services.